Weather in Prutskoy

Russia / Altai Krai     53°18′44″N   83°14′01″E
temp.,
°C
wind,
m/s
gust,
m/s
humid.,
%
clouds,
%
prec.,
mm/h
press.,
hPa
HPBL,
m
25 january, tue
tue2501:00−23sw1110057 0.0 10409
04:00−24sw1110045 0.0 10399
07:00−25sw1110099 0.0 10389
10:00−22sw2299100 0.0 103739
13:00−16sw239498 0.0 1036158
16:00−14sw2493100 0.0 1034229
19:00−18ssw3598100 0.0 103574
22:00−18ssw3697100 0.0 1034121
26 january, wed
wed2601:00−17ssw3796100 0.0 1033154
04:00−17s4994100 0.0 1032228
07:00−16s41188100 0.0 1030275
10:00−15s51195100 0.3 1029344
13:00−12ssw51194100 1.7 1028482
16:00−11ssw5994100 0.8 1027512
19:00−12sw499499 1.2 1029452
22:00−12sw389569 0.2 1030266
27 january, thu
thu2701:00−13ssw269782 0.3 1031109
04:00−14sw3696100 0.1 1033144
07:00−14sw379682 0.3 1035165
10:00−16sw379788 0.1 1037150
13:00−14wsw359398 0.1 1038249
16:00−13sw2493100 0.1 1038314
19:00−19ssw2210082 0.1 10399
22:00−22ssw2210086 0.0 104010
28 january, fri
fri2801:00−23ssw2210084 0.0 103912
04:00−23s22100100 0.0 103910
07:00−24sse22100100 0.0 103911
10:00−23se22100100 0.0 103828
13:00−14se129477 0.0 1037112
16:00−13ene129424 0.0 103577
19:00−19e2210061 0.0 103610
22:00−21e22100100 0.0 103511
29 january, sat
sat2901:00−22e22100100 0.0 103410
04:00−23ene22100100 0.0 103511
07:00−24ene2210099 0.0 103511
10:00−23e22100100 0.0 103523
13:00−14ene239316 0.0 1034134
16:00−12ne24949 0.0 1033153
19:00−18ene2210056 0.0 103417
22:00−21e2210010 0.0 103430